Terminal Aerodrome Forecast
Issued by NWS Glasgow, MT

Home | Current Version | Previous Version | Text Only | Print | Product List | Glossary On
Versions: 1 2 3 4 5 6 7 8 9 10 11 12 13 14
000
FTUS45 KGGW 051612 AAB
TAFGGW
TAF AMD
KGGW 051612Z 0516/0612 06010KT P6SM OVC015
     FM051800 07013KT P6SM VCSH BKN040
     FM060100 31008KT P6SM -SHRA OVC020
     FM060600 27010KT P6SM OVC050=

USA.gov is the U.S. government's official web portal to all federal, state and local government web resources and services.